,,Stat6,,Stat2,,Stat8,,Stat9,,Stat10,,Wind1,,Wind1,
time,status,PA1M_AVG,status,PR1M_SUM,status,RH1M_AVG,status,SR1M_AVG,status,TA1M_AVG,status,W1dAve1m,status,W1sAve1m,
2008-01-22, 00:00:00,VALID,915.839,VALID,0,VALID,100,VALID,0.0339617,VALID,20.2951,VALID,131,VALID,0,
2008-01-22, 00:01:00,VALID,915.837,VALID,0,VALID,100,VALID,0.0169808,VALID,20.2821,VALID,141,VALID,0.180398,
2008-01-22, 00:02:00,VALID,915.834,VALID,0,VALID,100,VALID,0,VALID,20.2718,VALID,147,VALID,0.779297,
2008-01-22, 00:03:00,VALID,915.842,VALID,0,VALID,100,VALID,0,VALID,20.2559,VALID,157,VALID,0.484961,
2008-01-22, 00:04:00,VALID,915.847,VALID,0,VALID,100,VALID,0.0509425,VALID,20.2391,VALID,140,VALID,0,
2008-01-22, 00:05:00,VALID,915.835,VALID,0,VALID,100,VALID,0,VALID,20.2397,VALID,131,VALID,0.542361,
2008-01-22, 00:06:00,VALID,915.821,VALID,0,VALID,100,VALID,0,VALID,20.2067,VALID,151,VALID,1.15941,
2008-01-22, 00:07:00,VALID,915.813,VALID,0,VALID,100,VALID,0.0169808,VALID,20.1942,VALID,144,VALID,1.66043,
2008-01-22, 00:08:00,VALID,915.797,VALID,0,VALID,100,VALID,0,VALID,20.1683,VALID,145,VALID,1.75078,
2008-01-22, 00:09:00,VALID,915.79,VALID,0,VALID,100,VALID,-0.0169808,VALID,20.1618,VALID,141,VALID,0.998183,
2008-01-22, 00:10:00,VALID,915.776,VALID,0,VALID,100,VALID,0,VALID,20.178,VALID,142,VALID,1.34653,
2008-01-22, 00:11:00,VALID,915.756,VALID,0,VALID,100,VALID,0,VALID,20.1942,VALID,133,VALID,1.6964,
2008-01-22, 00:12:00,VALID,915.75,VALID,0,VALID,100,VALID,-0.0339617,VALID,20.2234,VALID,137,VALID,1.5093,
2008-01-22, 00:13:00,VALID,915.749,VALID,0,VALID,100,VALID,0,VALID,20.2654,VALID,144,VALID,1.07031,
2008-01-22, 00:14:00,VALID,915.749,VALID,0,VALID,99.9914,VALID,0,VALID,20.2983,VALID,159,VALID,1.50874,
2008-01-22, 00:15:00,VALID,915.741,VALID,0,VALID,99.7205,VALID,0,VALID,20.334,VALID,156,VALID,1.10556,
2008-01-22, 00:16:00,VALID,915.748,VALID,0,VALID,99.3581,VALID,0.0339617,VALID,20.3892,VALID,153,VALID,1.55977,
2008-01-22, 00:17:00,VALID,915.751,VALID,0,VALID,98.9181,VALID,-0.0169808,VALID,20.4087,VALID,157,VALID,1.7184,
2008-01-22, 00:18:00,VALID,915.751,VALID,0,VALID,98.6117,VALID,0,VALID,20.4471,VALID,161,VALID,1.29942,
2008-01-22, 00:19:00,VALID,915.758,VALID,0,VALID,98.3205,VALID,0,VALID,20.4835,VALID,158,VALID,1.77269,
2008-01-22, 00:20:00,VALID,915.759,VALID,0,VALID,98.0305,VALID,-0.0169808,VALID,20.4928,VALID,143,VALID,1.23728,
2008-01-22, 00:21:00,VALID,915.771,VALID,0,VALID,97.8665,VALID,0,VALID,20.5092,VALID,137,VALID,1.31731,
2008-01-22, 00:22:00,VALID,915.765,VALID,0,VALID,97.7889,VALID,0,VALID,20.529,VALID,150,VALID,1.01429,
2008-01-22, 00:23:01,VALID,915.752,VALID,0,VALID,97.7241,VALID,0.0169808,VALID,20.522,VALID,144,VALID,0.756771,
2008-01-22, 00:24:00,VALID,915.752,VALID,0,VALID,97.7088,VALID,0,VALID,20.519,VALID,135,VALID,0.578869,
2008-01-22, 00:25:00,VALID,915.741,VALID,0,VALID,97.6999,VALID,-0.0169808,VALID,20.5155,VALID,129,VALID,0.916602,
2008-01-22, 00:26:00,VALID,915.718,VALID,0,VALID,97.6185,VALID,0.0169808,VALID,20.5087,VALID,147,VALID,1.42835,
2008-01-22, 00:27:00,VALID,915.7,VALID,0,VALID,97.4939,VALID,0,VALID,20.4987,VALID,140,VALID,1.17894,
2008-01-22, 00:28:01,VALID,915.704,VALID,0,VALID,97.3693,VALID,-0.0339617,VALID,20.509,VALID,131,VALID,0.546875,
2008-01-22, 00:29:01,VALID,915.682,VALID,0,VALID,97.1989,VALID,-0.0339617,VALID,20.5352,VALID,136,VALID,0,
2008-01-22, 00:30:00,VALID,915.678,VALID,0,VALID,97.0794,VALID,0,VALID,20.5579,VALID,126,VALID,0.132813,
2008-01-22, 00:31:00,VALID,915.676,VALID,0,VALID,96.9217,VALID,-0.0169808,VALID,20.5614,VALID,131,VALID,1.29483,
2008-01-22, 00:32:00,VALID,915.672,VALID,0,VALID,96.8251,VALID,-0.0169808,VALID,20.5812,VALID,125,VALID,1.31174,
2008-01-22, 00:33:00,VALID,915.678,VALID,0,VALID,96.7653,VALID,-0.0169808,VALID,20.5934,VALID,133,VALID,0.74349,
2008-01-22, 00:34:01,VALID,915.663,VALID,0,VALID,96.7157,VALID,-0.0169808,VALID,20.6031,VALID,145,VALID,1.11519,
2008-01-22, 00:35:00,VALID,915.649,VALID,0,VALID,96.5618,VALID,0,VALID,20.5934,VALID,155,VALID,1.55335,
2008-01-22, 00:36:00,VALID,915.635,VALID,0,VALID,96.4487,VALID,0,VALID,20.6028,VALID,132,VALID,1.36198,
2008-01-22, 00:37:00,VALID,915.643,VALID,0,VALID,96.4181,VALID,0,VALID,20.6196,VALID,110,VALID,1.20238,
2008-01-22, 00:38:00,VALID,915.644,VALID,0,VALID,96.3978,VALID,0,VALID,20.6034,VALID,116,VALID,1.06417,
2008-01-22, 00:39:01,VALID,915.645,VALID,0,VALID,96.469,VALID,-0.0339617,VALID,20.6134,VALID,97,VALID,0.629383,
2008-01-22, 00:40:01,VALID,915.652,VALID,0,VALID,96.4906,VALID,0,VALID,20.6069,VALID,104,VALID,0.447798,
2008-01-22, 00:41:00,VALID,915.676,VALID,0,VALID,96.5974,VALID,0,VALID,20.5936,VALID,86,VALID,0.783398,
2008-01-22, 00:42:01,VALID,915.691,VALID,0,VALID,96.6051,VALID,0.0169808,VALID,20.5706,VALID,120,VALID,0.935454,
2008-01-22, 00:43:01,VALID,915.707,VALID,0,VALID,96.6051,VALID,0.0339617,VALID,20.5574,VALID,114,VALID,0.80609,
2008-01-22, 00:44:00,VALID,915.724,VALID,0,VALID,96.5873,VALID,0,VALID,20.5412,VALID,127,VALID,1.04891,
2008-01-22, 00:45:00,VALID,915.765,VALID,0,VALID,96.4805,VALID,0,VALID,20.5449,VALID,135,VALID,1.242,
2008-01-22, 00:46:00,VALID,915.763,VALID,0,VALID,96.3762,VALID,0,VALID,20.5449,VALID,136,VALID,0.787891,
2008-01-22, 00:47:00,VALID,915.757,VALID,0,VALID,96.2897,VALID,0,VALID,20.5642,VALID,146,VALID,0.448103,
2008-01-22, 00:48:00,VALID,915.765,VALID,0,VALID,96.2147,VALID,-0.0169808,VALID,20.5739,VALID,143,VALID,1.20749,
2008-01-22, 00:49:01,VALID,915.741,VALID,0,VALID,96.113,VALID,0,VALID,20.5739,VALID,144,VALID,1.45313,
2008-01-22, 00:50:00,VALID,915.729,VALID,0,VALID,96.0392,VALID,0,VALID,20.5836,VALID,141,VALID,1.01262,
2008-01-22, 00:51:01,VALID,915.713,VALID,0,VALID,95.8599,VALID,0,VALID,20.5904,VALID,137,VALID,1.96152,
2008-01-22, 00:52:00,VALID,915.711,VALID,0,VALID,95.7684,VALID,0,VALID,20.6096,VALID,130,VALID,1.86828,
2008-01-22, 00:53:01,VALID,915.7,VALID,0,VALID,95.7912,VALID,-0.0169808,VALID,20.6291,VALID,137,VALID,1.86098,
2008-01-22, 00:54:00,VALID,915.681,VALID,0,VALID,95.8586,VALID,0.0339617,VALID,20.6261,VALID,128,VALID,1.88587,
2008-01-22, 00:55:00,VALID,915.682,VALID,0,VALID,95.8904,VALID,0,VALID,20.6134,VALID,134,VALID,1.80926,
2008-01-22, 00:56:00,VALID,915.685,VALID,0,VALID,95.8574,VALID,-0.0339617,VALID,20.6096,VALID,138,VALID,1.62695,
2008-01-22, 00:57:01,VALID,915.687,VALID,0,VALID,95.7531,VALID,0,VALID,20.6196,VALID,137,VALID,1.9135,
2008-01-22, 00:58:00,VALID,915.692,VALID,0,VALID,95.7404,VALID,0,VALID,20.6291,VALID,137,VALID,1.9654,
2008-01-22, 00:59:00,VALID,915.687,VALID,0,VALID,95.6921,VALID,-0.0169808,VALID,20.6256,VALID,141,VALID,1.88681,
2008-01-22, 01:00:00,VALID,915.673,VALID,0,VALID,95.6208,VALID,-0.0169808,VALID,20.6391,VALID,134,VALID,1.85957,
2008-01-22, 01:01:01,VALID,915.674,VALID,0,VALID,95.7035,VALID,0,VALID,20.6488,VALID,136,VALID,1.63167,
2008-01-22, 01:02:00,VALID,915.656,VALID,0,VALID,95.8548,VALID,0,VALID,20.6455,VALID,132,VALID,1.66969,
2008-01-22, 01:03:00,VALID,915.654,VALID,0,VALID,96.0112,VALID,0,VALID,20.6191,VALID,135,VALID,1.78144,
2008-01-22, 01:04:00,VALID,915.629,VALID,0,VALID,96.2401,VALID,0,VALID,20.5966,VALID,133,VALID,1.97098,
2008-01-22, 01:05:00,VALID,915.608,VALID,0,VALID,96.3724,VALID,0.0169808,VALID,20.5836,VALID,157,VALID,1.59654,
2008-01-22, 01:06:01,VALID,915.601,VALID,0,VALID,96.4309,VALID,0,VALID,20.5739,VALID,141,VALID,1.67854,
2008-01-22, 01:07:01,VALID,915.595,VALID,0,VALID,96.4067,VALID,0,VALID,20.5609,VALID,142,VALID,1.17387,
2008-01-22, 01:08:00,VALID,915.578,VALID,0,VALID,96.427,VALID,0.0339617,VALID,20.5577,VALID,131,VALID,1.34511,
2008-01-22, 01:09:01,VALID,915.584,VALID,0,VALID,96.5186,VALID,-0.0169808,VALID,20.5544,VALID,121,VALID,1.15134,
2008-01-22, 01:10:00,VALID,915.559,VALID,0,VALID,96.5746,VALID,0,VALID,20.5579,VALID,141,VALID,1.57969,
2008-01-22, 01:11:00,VALID,915.575,VALID,0,VALID,96.7055,VALID,0,VALID,20.5449,VALID,138,VALID,1.87843,
2008-01-22, 01:12:01,VALID,915.549,VALID,0,VALID,96.8416,VALID,0.0169808,VALID,20.5352,VALID,153,VALID,1.07637,
2008-01-22, 01:13:00,VALID,915.529,VALID,0,VALID,96.9001,VALID,0.0169808,VALID,20.525,VALID,138,VALID,0.925521,
2008-01-22, 01:14:01,VALID,915.502,VALID,0,VALID,96.8899,VALID,0,VALID,20.5187,VALID,146,VALID,1.2702,
2008-01-22, 01:15:01,VALID,915.476,VALID,0,VALID,96.8772,VALID,0,VALID,20.5187,VALID,147,VALID,0.849201,
2008-01-22, 01:16:01,VALID,915.475,VALID,0,VALID,96.8365,VALID,-0.0169808,VALID,20.522,VALID,144,VALID,1.43572,
2008-01-22, 01:17:01,VALID,915.474,VALID,0,VALID,96.7818,VALID,0,VALID,20.532,VALID,150,VALID,1.30887,
2008-01-22, 01:18:01,VALID,915.467,VALID,0,VALID,96.7195,VALID,0,VALID,20.5417,VALID,158,VALID,1.45676,
2008-01-22, 01:19:01,VALID,915.449,VALID,0,VALID,96.5974,VALID,-0.0169808,VALID,20.5449,VALID,154,VALID,1.49291,
2008-01-22, 01:20:01,VALID,915.472,VALID,0,VALID,96.5275,VALID,0,VALID,20.5577,VALID,154,VALID,1.46655,
2008-01-22, 01:21:01,VALID,915.434,VALID,0,VALID,96.3864,VALID,0,VALID,20.5644,VALID,158,VALID,1.4207,
2008-01-22, 01:22:01,VALID,915.416,VALID,0,VALID,96.3571,VALID,0,VALID,20.5639,VALID,165,VALID,1.72311,
2008-01-22, 01:23:00,VALID,915.397,VALID,0,VALID,96.2973,VALID,0,VALID,20.5836,VALID,161,VALID,1.55128,
2008-01-22, 01:24:00,VALID,915.385,VALID,0,VALID,96.1778,VALID,0,VALID,20.5909,VALID,152,VALID,1.03361,
2008-01-22, 01:25:00,VALID,915.357,VALID,0,VALID,96.1104,VALID,0,VALID,20.5969,VALID,131,VALID,1.21312,
2008-01-22, 01:26:00,VALID,915.33,VALID,0,VALID,96.1091,VALID,-0.0169808,VALID,20.5969,VALID,150,VALID,1.32961,
2008-01-22, 01:27:00,VALID,915.29,VALID,0,VALID,96.1346,VALID,-0.0169808,VALID,20.5871,VALID,132,VALID,0.846094,
2008-01-22, 01:28:00,VALID,915.263,VALID,0,VALID,96.0952,VALID,-0.0169808,VALID,20.5706,VALID,139,VALID,1.41946,
2008-01-22, 01:29:00,VALID,915.234,VALID,0,VALID,96.0227,VALID,-0.0169808,VALID,20.5609,VALID,155,VALID,1.47637,
2008-01-22, 01:30:00,VALID,915.209,VALID,0,VALID,95.8624,VALID,0,VALID,20.5612,VALID,135,VALID,1.53729,
2008-01-22, 01:31:00,VALID,915.19,VALID,0,VALID,95.72,VALID,-0.0339617,VALID,20.5642,VALID,150,VALID,1.41216,
2008-01-22, 01:32:00,VALID,915.169,VALID,0,VALID,95.5611,VALID,-0.0509425,VALID,20.5712,VALID,137,VALID,1.04078,
2008-01-22, 01:33:00,VALID,915.156,VALID,0,VALID,95.3258,VALID,-0.0509425,VALID,20.5777,VALID,134,VALID,1.73742,
2008-01-22, 01:34:00,VALID,915.13,VALID,0,VALID,95.1338,VALID,-0.0509425,VALID,20.6006,VALID,132,VALID,1.84844,
2008-01-22, 01:35:00,VALID,915.1,VALID,0,VALID,94.9482,VALID,0,VALID,20.6193,VALID,157,VALID,1.44893,
2008-01-22, 01:36:00,VALID,915.088,VALID,0,VALID,94.8782,VALID,0,VALID,20.6323,VALID,143,VALID,1.60671,
2008-01-22, 01:37:00,VALID,915.087,VALID,0,VALID,94.9583,VALID,-0.0339617,VALID,20.6391,VALID,137,VALID,1.43359,
2008-01-22, 01:38:00,VALID,915.069,VALID,0,VALID,95.13,VALID,-0.0509425,VALID,20.6034,VALID,130,VALID,1.32124,
2008-01-22, 01:39:00,VALID,915.058,VALID,0,VALID,95.2597,VALID,-0.0339617,VALID,20.5744,VALID,151,VALID,1.00514,
2008-01-22, 01:40:00,VALID,915.082,VALID,0,VALID,95.3182,VALID,-0.0169808,VALID,20.5617,VALID,149,VALID,0.958734,
2008-01-22, 01:41:00,VALID,915.093,VALID,0,VALID,95.3335,VALID,-0.0509425,VALID,20.5579,VALID,139,VALID,0.833398,
2008-01-22, 01:42:00,VALID,915.115,VALID,0,VALID,95.3258,VALID,-0.0339617,VALID,20.5517,VALID,138,VALID,1.15189,
2008-01-22, 01:43:00,VALID,915.105,VALID,0,VALID,95.186,VALID,-0.0169808,VALID,20.529,VALID,144,VALID,1.2627,
2008-01-22, 01:44:00,VALID,915.105,VALID,0,VALID,95.0397,VALID,-0.0679233,VALID,20.5482,VALID,139,VALID,0.638194,
2008-01-22, 01:45:00,VALID,915.138,VALID,0,VALID,94.9278,VALID,-0.0679233,VALID,20.5774,VALID,138,VALID,0.0801711,
2008-01-22, 01:46:00,VALID,915.143,VALID,0,VALID,94.8477,VALID,-0.0509425,VALID,20.5909,VALID,160,VALID,0.597384,
2008-01-22, 01:47:00,VALID,915.131,VALID,0,VALID,94.9266,VALID,-0.0169808,VALID,20.5969,VALID,163,VALID,1.17515,
2008-01-22, 01:48:00,VALID,915.122,VALID,0,VALID,95.0232,VALID,-0.0339617,VALID,20.5966,VALID,166,VALID,1.15341,
2008-01-22, 01:49:00,VALID,915.114,VALID,0,VALID,95.1669,VALID,-0.0169808,VALID,20.5769,VALID,158,VALID,1.32013,
2008-01-22, 01:50:00,VALID,915.101,VALID,0,VALID,95.2775,VALID,0,VALID,20.5709,VALID,166,VALID,1.14788,
2008-01-22, 01:51:00,VALID,915.085,VALID,0,VALID,95.3767,VALID,-0.0169808,VALID,20.5514,VALID,163,VALID,0.710574,
2008-01-22, 01:52:00,VALID,915.05,VALID,0,VALID,95.4059,VALID,-0.0339617,VALID,20.5285,VALID,168,VALID,0.833394,
2008-01-22, 01:53:00,VALID,915.006,VALID,0,VALID,95.4683,VALID,-0.0169808,VALID,20.5287,VALID,135,VALID,0.680273,
2008-01-22, 01:54:00,VALID,914.982,VALID,0,VALID,95.2559,VALID,-0.0509425,VALID,20.493,VALID,138,VALID,1.46074,
2008-01-22, 01:55:00,VALID,914.951,VALID,0,VALID,94.8782,VALID,0,VALID,20.483,VALID,138,VALID,1.93895,
2008-01-22, 01:56:00,VALID,914.92,VALID,0,VALID,94.3187,VALID,-0.0169808,VALID,20.5252,VALID,132,VALID,1.90734,
2008-01-22, 01:57:00,VALID,914.898,VALID,0,VALID,93.8762,VALID,-0.0169808,VALID,20.5836,VALID,140,VALID,1.42063,
2008-01-22, 01:58:00,VALID,914.861,VALID,0,VALID,93.5291,VALID,0,VALID,20.6163,VALID,130,VALID,1.17588,
2008-01-22, 01:59:00,VALID,914.829,VALID,0,VALID,93.351,VALID,0.0169808,VALID,20.6491,VALID,133,VALID,1.02992,
2008-01-22, 02:00:00,VALID,914.792,VALID,0,VALID,93.3434,VALID,0,VALID,20.6548,VALID,134,VALID,0.723704,
2008-01-22, 02:01:00,VALID,914.78,VALID,0,VALID,93.4172,VALID,0,VALID,20.6515,VALID,124,VALID,0.952106,
2008-01-22, 02:02:00,VALID,914.764,VALID,0,VALID,93.4439,VALID,0,VALID,20.6323,VALID,139,VALID,1.54306,
2008-01-22, 02:03:00,VALID,914.736,VALID,0,VALID,93.4553,VALID,-0.0339617,VALID,20.6161,VALID,140,VALID,1.42245,
2008-01-22, 02:04:00,VALID,914.71,VALID,0,VALID,93.4706,VALID,0,VALID,20.6066,VALID,135,VALID,1.30394,
2008-01-22, 02:05:00,VALID,914.678,VALID,0,VALID,93.5621,VALID,-0.0169808,VALID,20.5963,VALID,140,VALID,1.8919,
2008-01-22, 02:06:00,VALID,914.649,VALID,0,VALID,93.543,VALID,0,VALID,20.6063,VALID,157,VALID,1.43521,
2008-01-22, 02:07:00,VALID,914.608,VALID,0,VALID,93.5697,VALID,0,VALID,20.6128,VALID,144,VALID,1.42898,
2008-01-22, 02:08:00,VALID,914.57,VALID,0,VALID,93.66,VALID,0,VALID,20.6193,VALID,139,VALID,1.14729,
2008-01-22, 02:09:00,VALID,914.536,VALID,0,VALID,93.8063,VALID,0,VALID,20.6031,VALID,122,VALID,1.24047,
2008-01-22, 02:10:00,VALID,914.519,VALID,0,VALID,93.9767,VALID,-0.0339617,VALID,20.5677,VALID,127,VALID,1.13988,
2008-01-22, 02:11:00,VALID,914.505,VALID,0,VALID,94.2183,VALID,-0.0509425,VALID,20.5352,VALID,128,VALID,1.25927,
2008-01-22, 02:12:00,VALID,914.496,VALID,0,VALID,94.5069,VALID,-0.0169808,VALID,20.4865,VALID,144,VALID,1.17656,
2008-01-22, 02:13:00,VALID,914.496,VALID,0,VALID,94.8147,VALID,-0.0339617,VALID,20.4576,VALID,144,VALID,1.46132,
2008-01-22, 02:14:00,VALID,914.504,VALID,0,VALID,95.0982,VALID,-0.0339617,VALID,20.4346,VALID,134,VALID,1.68787,
2008-01-22, 02:15:00,VALID,914.488,VALID,0,VALID,95.2673,VALID,-0.0339617,VALID,20.3987,VALID,133,VALID,1.29036,
2008-01-22, 02:16:00,VALID,914.475,VALID,0,VALID,95.5484,VALID,-0.0339617,VALID,20.3735,VALID,141,VALID,1.82086,
2008-01-22, 02:17:00,VALID,914.455,VALID,0,VALID,95.8447,VALID,-0.0339617,VALID,20.3572,VALID,149,VALID,1.70988,
2008-01-22, 02:18:00,VALID,914.444,VALID,0,VALID,96.0011,VALID,-0.0509425,VALID,20.3408,VALID,147,VALID,1.53488,
2008-01-22, 02:19:00,VALID,914.43,VALID,0,VALID,96.1155,VALID,-0.0849042,VALID,20.3251,VALID,146,VALID,1.3679,
2008-01-22, 02:20:00,VALID,914.418,VALID,0,VALID,96.2236,VALID,-0.0169808,VALID,20.3053,VALID,161,VALID,1.73965,
2008-01-22, 02:21:00,VALID,914.424,VALID,0,VALID,96.4003,VALID,-0.0679233,VALID,20.2796,VALID,160,VALID,1.48027,
2008-01-22, 02:22:00,VALID,914.399,VALID,0,VALID,96.5402,VALID,-0.0849042,VALID,20.2564,VALID,154,VALID,1.26711,
2008-01-22, 02:23:00,VALID,914.39,VALID,0,VALID,96.6699,VALID,-0.0339617,VALID,20.2474,VALID,159,VALID,1.57738,
2008-01-22, 02:24:00,VALID,914.383,VALID,0,VALID,96.6903,VALID,-0.0679233,VALID,20.2147,VALID,158,VALID,1.22098,
2008-01-22, 02:25:00,VALID,914.368,VALID,0,VALID,96.7259,VALID,-0.0849042,VALID,20.1987,VALID,164,VALID,1.61083,
2008-01-22, 02:26:00,VALID,914.346,VALID,0,VALID,96.6343,VALID,-0.0679233,VALID,20.2023,VALID,163,VALID,1.69622,
2008-01-22, 02:27:00,VALID,914.339,VALID,0,VALID,96.3851,VALID,-0.0679233,VALID,20.2245,VALID,154,VALID,1.85732,
2008-01-22, 02:28:00,VALID,914.33,VALID,0,VALID,96.071,VALID,-0.0849042,VALID,20.2499,VALID,158,VALID,1.44113,
2008-01-22, 02:29:00,VALID,914.327,VALID,0,VALID,95.8536,VALID,-0.0849042,VALID,20.2766,VALID,159,VALID,1.64546,
2008-01-22, 02:30:00,VALID,914.319,VALID,0,VALID,95.7378,VALID,-0.0679233,VALID,20.2726,VALID,156,VALID,1.26989,
2008-01-22, 02:31:00,VALID,914.296,VALID,0,VALID,95.5433,VALID,-0.0679233,VALID,20.2799,VALID,151,VALID,1.39291,
2008-01-22, 02:32:00,VALID,914.297,VALID,0,VALID,95.425,VALID,-0.0849042,VALID,20.2826,VALID,145,VALID,1.33475,
2008-01-22, 02:33:00,VALID,914.274,VALID,0,VALID,95.2076,VALID,-0.0679233,VALID,20.2794,VALID,142,VALID,1.19727,
2008-01-22, 02:34:00,VALID,914.266,VALID,0,VALID,94.9812,VALID,-0.0679233,VALID,20.2824,VALID,142,VALID,0.69122,
2008-01-22, 02:35:00,VALID,914.252,VALID,0,VALID,94.9329,VALID,-0.0679233,VALID,20.2918,VALID,153,VALID,1.14024,
2008-01-22, 02:36:00,VALID,914.216,VALID,0,VALID,94.8909,VALID,-0.0169808,VALID,20.3016,VALID,140,VALID,0.619496,
2008-01-22, 02:37:00,VALID,914.195,VALID,0,VALID,94.9011,VALID,-0.0339617,VALID,20.3083,VALID,146,VALID,0.986632,
2008-01-22, 02:38:00,VALID,914.175,VALID,0,VALID,94.9088,VALID,-0.0169808,VALID,20.3016,VALID,145,VALID,1.32813,
2008-01-22, 02:39:00,VALID,914.161,VALID,0,VALID,95.0957,VALID,-0.0509425,VALID,20.3078,VALID,135,VALID,1.8207,
2008-01-22, 02:40:00,VALID,914.161,VALID,0,VALID,95.2623,VALID,-0.0169808,VALID,20.3175,VALID,126,VALID,1.62351,
2008-01-22, 02:41:00,VALID,914.141,VALID,0,VALID,95.5242,VALID,-0.0339617,VALID,20.2948,VALID,118,VALID,1.5908,
2008-01-22, 02:42:00,VALID,914.124,VALID,0,VALID,95.8307,VALID,-0.0509425,VALID,20.2631,VALID,122,VALID,1.52198,
2008-01-22, 02:43:00,VALID,914.102,VALID,0,VALID,96.1905,VALID,-0.0509425,VALID,20.2047,VALID,133,VALID,1.43045,
2008-01-22, 02:44:00,VALID,914.08,VALID,0,VALID,96.5822,VALID,-0.0679233,VALID,20.1428,VALID,134,VALID,1.38068,
2008-01-22, 02:45:00,VALID,914.07,VALID,0,VALID,96.9242,VALID,-0.0339617,VALID,20.0709,VALID,127,VALID,1.37637,
2008-01-22, 02:46:00,VALID,914.065,VALID,0,VALID,97.2917,VALID,-0.0509425,VALID,20.0158,VALID,139,VALID,1.12285,
2008-01-22, 02:47:00,VALID,914.044,VALID,0,VALID,97.6834,VALID,-0.0169808,VALID,19.9901,VALID,143,VALID,1.44699,
2008-01-22, 02:48:00,VALID,914.023,VALID,0,VALID,97.8729,VALID,-0.0679233,VALID,19.9546,VALID,149,VALID,1.22511,
2008-01-22, 02:49:00,VALID,914.003,VALID,0,VALID,97.9314,VALID,-0.0169808,VALID,19.9314,VALID,150,VALID,1.70351,
2008-01-22, 02:50:00,VALID,913.974,VALID,0,VALID,97.9873,VALID,0,VALID,19.9119,VALID,152,VALID,1.79251,
2008-01-22, 02:51:00,VALID,913.979,VALID,0,VALID,98.0153,VALID,-0.0339617,VALID,19.9084,VALID,151,VALID,1.42986,
2008-01-22, 02:52:00,VALID,913.96,VALID,0,VALID,98.0255,VALID,-0.0339617,VALID,19.899,VALID,154,VALID,1.1793,
2008-01-22, 02:53:00,VALID,913.948,VALID,0,VALID,98.0636,VALID,-0.0169808,VALID,19.8892,VALID,143,VALID,1.25898,
2008-01-22, 02:54:00,VALID,913.942,VALID,0,VALID,98.0534,VALID,-0.0679233,VALID,19.8665,VALID,137,VALID,1.2033,
2008-01-22, 02:55:00,VALID,913.917,VALID,0,VALID,98.0801,VALID,-0.0679233,VALID,19.8538,VALID,143,VALID,1.17578,
2008-01-22, 02:56:00,VALID,913.902,VALID,0,VALID,98.1577,VALID,0,VALID,19.8341,VALID,137,VALID,1.10175,
2008-01-22, 02:57:00,VALID,913.887,VALID,0,VALID,98.2747,VALID,-0.0509425,VALID,19.8211,VALID,155,VALID,1.03982,
2008-01-22, 02:58:00,VALID,913.874,VALID,0,VALID,98.262,VALID,-0.0509425,VALID,19.8114,VALID,138,VALID,0.972124,
2008-01-22, 02:59:00,VALID,913.855,VALID,0,VALID,98.1463,VALID,-0.0679233,VALID,19.7919,VALID,123,VALID,1.33775,
2008-01-22, 03:00:00,VALID,913.861,VALID,0,VALID,97.986,VALID,-0.0339617,VALID,19.7565,VALID,114,VALID,1.11566,
2008-01-22, 03:01:00,VALID,913.84,VALID,0,VALID,97.9542,VALID,-0.0339617,VALID,19.711,VALID,123,VALID,1.04573,
2008-01-22, 03:02:00,VALID,913.846,VALID,0,VALID,97.9911,VALID,-0.0169808,VALID,19.6816,VALID,131,VALID,1.4574,
2008-01-22, 03:03:00,VALID,913.855,VALID,0,VALID,97.9822,VALID,-0.0169808,VALID,19.6621,VALID,129,VALID,1.4246,
2008-01-22, 03:04:00,VALID,913.864,VALID,0,VALID,97.9898,VALID,-0.0339617,VALID,19.6556,VALID,136,VALID,1.58651,
2008-01-22, 03:05:00,VALID,913.872,VALID,0,VALID,97.8576,VALID,-0.0339617,VALID,19.6621,VALID,136,VALID,1.337,
2008-01-22, 03:06:00,VALID,913.868,VALID,0,VALID,97.63,VALID,-0.0339617,VALID,19.6714,VALID,135,VALID,1.69492,
2008-01-22, 03:07:00,VALID,913.861,VALID,0,VALID,97.4787,VALID,0,VALID,19.6881,VALID,136,VALID,1.16642,
2008-01-22, 03:08:00,VALID,913.855,VALID,0,VALID,97.335,VALID,-0.0339617,VALID,19.7043,VALID,145,VALID,1.20103,
2008-01-22, 03:09:00,VALID,913.853,VALID,0,VALID,97.1112,VALID,0,VALID,19.7138,VALID,133,VALID,1.23017,
2008-01-22, 03:10:00,VALID,913.846,VALID,0,VALID,96.8479,VALID,-0.0339617,VALID,19.7135,VALID,129,VALID,1.14621,
2008-01-22, 03:11:00,VALID,913.828,VALID,0,VALID,96.6216,VALID,-0.0509425,VALID,19.7402,VALID,119,VALID,1.60298,
2008-01-22, 03:12:00,VALID,913.796,VALID,0,VALID,96.4588,VALID,-0.0509425,VALID,19.7532,VALID,126,VALID,1.84096,
2008-01-22, 03:13:00,VALID,913.772,VALID,0,VALID,96.3736,VALID,-0.0509425,VALID,19.7897,VALID,135,VALID,1.73073,
2008-01-22, 03:14:00,VALID,913.764,VALID,0,VALID,96.3914,VALID,-0.0679233,VALID,19.8218,VALID,142,VALID,1.43803,
2008-01-22, 03:15:00,VALID,913.757,VALID,0,VALID,96.4995,VALID,-0.0849042,VALID,19.8251,VALID,136,VALID,1.73679,
2008-01-22, 03:16:00,VALID,913.76,VALID,0,VALID,96.6152,VALID,-0.0509425,VALID,19.8216,VALID,132,VALID,1.11238,
2008-01-22, 03:17:00,VALID,913.78,VALID,0,VALID,96.6483,VALID,-0.0679233,VALID,19.8313,VALID,159,VALID,1.61464,
2008-01-22, 03:18:00,VALID,913.81,VALID,0,VALID,96.6013,VALID,-0.0679233,VALID,19.855,VALID,152,VALID,1.37995,
2008-01-22, 03:19:00,VALID,913.84,VALID,0,VALID,96.5135,VALID,0,VALID,19.8376,VALID,133,VALID,1.02401,
2008-01-22, 03:20:00,VALID,913.853,VALID,0,VALID,96.6025,VALID,-0.0339617,VALID,19.8181,VALID,153,VALID,0.948633,
2008-01-22, 03:21:00,VALID,913.874,VALID,0,VALID,96.778,VALID,-0.0339617,VALID,19.8086,VALID,151,VALID,0.94391,
2008-01-22, 03:22:00,VALID,913.884,VALID,0,VALID,96.8568,VALID,-0.0339617,VALID,19.7924,VALID,162,VALID,0.967188,
2008-01-22, 03:23:00,VALID,913.912,VALID,0,VALID,96.9153,VALID,-0.0509425,VALID,19.7697,VALID,135,VALID,1.01811,
2008-01-22, 03:24:00,VALID,913.911,VALID,0,VALID,97.1328,VALID,-0.0509425,VALID,19.7502,VALID,163,VALID,0.756177,
2008-01-22, 03:25:00,VALID,913.926,VALID,0,VALID,97.4418,VALID,-0.0509425,VALID,19.7407,VALID,165,VALID,1.08668,
2008-01-22, 03:26:00,VALID,913.938,VALID,0,VALID,97.5969,VALID,-0.0679233,VALID,19.7115,VALID,150,VALID,0.949855,
2008-01-22, 03:27:00,VALID,913.951,VALID,0,VALID,97.6796,VALID,-0.0679233,VALID,19.6788,VALID,156,VALID,0.464583,
2008-01-22, 03:28:00,VALID,913.935,VALID,0,VALID,97.9301,VALID,-0.0339617,VALID,19.6494,VALID,174,VALID,0.941406,
2008-01-22, 03:29:00,VALID,913.939,VALID,0,VALID,97.9759,VALID,-0.0509425,VALID,19.6596,VALID,157,VALID,0.649709,
2008-01-22, 03:30:00,VALID,913.948,VALID,0,VALID,97.8754,VALID,-0.101885,VALID,19.6733,VALID,153,VALID,0.860937,
2008-01-22, 03:31:00,VALID,913.943,VALID,0,VALID,97.7266,VALID,-0.0339617,VALID,19.6728,VALID,128,VALID,0.281661,
2008-01-22, 03:32:00,VALID,913.934,VALID,0,VALID,97.5194,VALID,-0.0509425,VALID,19.6661,VALID,117,VALID,0.583519,
2008-01-22, 03:33:00,VALID,913.942,VALID,0,VALID,97.4189,VALID,-0.0509425,VALID,19.6689,VALID,115,VALID,0.990885,
2008-01-22, 03:34:00,VALID,913.936,VALID,0,VALID,97.3223,VALID,-0.0339617,VALID,19.6956,VALID,128,VALID,0.91183,